TimeCST,TemperatureF,Dew PointF,Humidity,Sea Level PressureIn,VisibilityMPH,Wind Direction,Wind SpeedMPH,Gust SpeedMPH,PrecipitationIn,Events,Conditions,WindDirDegrees,DateUTC
1:52 AM,28.0,19.0,69,30.06,10.0,NW,17.3,26.5,N/A,,Overcast,310,2013-03-05 07:52:00
2:52 AM,27.0,18.0,69,30.06,10.0,WNW,19.6,26.5,N/A,,Overcast,300,2013-03-05 08:52:00
3:52 AM,26.1,17.1,69,30.05,10.0,WNW,15.0,26.5,N/A,,Overcast,300,2013-03-05 09:52:00
4:07 AM,26.6,17.6,69,30.01,10.0,WNW,18.4,26.5,N/A,,Overcast,300,2013-03-05 10:07:00
4:52 AM,25.0,18.0,75,30.05,10.0,WNW,17.3,25.3,N/A,,Overcast,290,2013-03-05 10:52:00
5:52 AM,26.1,19.0,75,30.05,10.0,WNW,19.6,27.6,0.00,,Overcast,290,2013-03-05 11:52:00
6:52 AM,26.6,21.2,80,30.00,10.0,WNW,19.6,-,N/A,,Overcast,300,2013-03-05 12:52:00
7:52 AM,27.0,23.0,85,30.05,4.0,NW,19.6,34.5,0.00,Snow,Light Snow,310,2013-03-05 13:52:00
8:37 AM,26.6,21.2,80,30.04,2.0,NW,28.8,42.6,0.00,Snow,Light Snow,320,2013-03-05 14:37:00
8:44 AM,26.6,21.2,80,30.05,1.5,NW,28.8,42.6,0.00,Snow,Light Snow,320,2013-03-05 14:44:00
8:52 AM,27.0,21.9,81,30.09,1.8,NW,31.1,39.1,0.00,Snow,Light Snow,320,2013-03-05 14:52:00
9:01 AM,26.6,23.0,86,30.06,0.8,NW,24.2,39.1,N/A,Snow,Light Snow,320,2013-03-05 15:01:00
9:26 AM,26.6,21.2,80,30.06,0.8,NW,32.2,42.6,0.00,Snow,Light Snow,320,2013-03-05 15:26:00
9:42 AM,26.6,21.2,80,30.08,1.0,NW,34.5,43.7,0.00,Snow,Light Snow,320,2013-03-05 15:42:00
9:52 AM,27.0,21.9,81,30.11,1.0,NW,33.4,43.7,0.00,Snow,Light Snow,320,2013-03-05 15:52:00
10:10 AM,26.6,21.2,80,30.09,2.5,NW,32.2,48.3,0.00,Snow,Light Snow,320,2013-03-05 16:10:00
10:14 AM,26.6,21.2,80,30.09,3.0,NW,32.2,48.3,0.00,Snow,Light Snow,320,2013-03-05 16:14:00
10:21 AM,26.6,21.2,80,30.09,2.0,NNW,29.9,46.0,0.00,Snow,Light Snow,330,2013-03-05 16:21:00
10:52 AM,27.0,21.9,81,30.15,4.0,NNW,33.4,44.9,0.00,Snow,Light Snow,330,2013-03-05 16:52:00
11:52 AM,28.0,21.0,75,30.19,8.0,NNW,28.8,43.7,0.00,Snow,Light Snow,330,2013-03-05 17:52:00
12:52 PM,28.0,19.9,72,30.19,9.0,NNW,32.2,44.9,0.00,Snow,Light Snow,330,2013-03-05 18:52:00
1:52 PM,28.0,19.9,72,30.22,9.0,NNW,29.9,41.4,0.00,Snow,Light Snow,330,2013-03-05 19:52:00
2:43 PM,28.4,19.4,69,30.20,9.0,NNW,33.4,41.4,0.00,Snow,Light Snow,340,2013-03-05 20:43:00
2:52 PM,27.0,19.9,75,30.26,9.0,NNW,31.1,39.1,0.00,Snow,Light Snow,340,2013-03-05 20:52:00
3:52 PM,27.0,19.9,75,30.29,10.0,NNW,27.6,35.7,0.00,,Overcast,330,2013-03-05 21:52:00
4:52 PM,27.0,18.0,69,30.32,9.0,NNW,28.8,38.0,0.00,Snow,Light Snow,330,2013-03-05 22:52:00
5:52 PM,25.0,18.0,75,30.34,10.0,NNW,26.5,35.7,0.00,,Overcast,330,2013-03-05 23:52:00
6:52 PM,24.1,17.1,75,30.37,10.0,NNW,18.4,31.1,N/A,,Overcast,340,2013-03-06 00:52:00
7:52 PM,23.0,16.0,74,30.39,10.0,NW,19.6,25.3,N/A,,Overcast,320,2013-03-06 01:52:00
8:52 PM,23.0,16.0,74,30.40,10.0,NNW,18.4,24.2,N/A,,Overcast,330,2013-03-06 02:52:00
9:52 PM,23.0,16.0,74,30.41,10.0,NW,15.0,-,N/A,,Overcast,320,2013-03-06 03:52:00
10:52 PM,23.0,16.0,74,30.43,10.0,NNW,17.3,-,N/A,,Overcast,330,2013-03-06 04:52:00
11:52 PM,21.9,15.1,75,30.45,10.0,NW,15.0,-,N/A,,Overcast,320,2013-03-06 05:52:00